Simultaneous Nadir Overpasses (SNOs) Predictions

Prediction of SNOs near US between AQUA and NPP Satellite Orbit:

Table of predicted SNOs near US for the next 10.0 days since TLE Epoch: 2/22/2020
Index Date (AQUA) Time (AQUA) AQUA Lat,Lon Date (NPP) Time (NPP) NPP Lat,Lon Distance(km) Time Diff (sec)
1 02/23/2020 19:06:34 49.97, -92.57 02/23/2020 19:00:45 49.64, -94.37 134.16 349
2 02/23/2020 20:45:27 49.97,-117.29 02/23/2020 20:42:13 49.53,-119.69 179.46 194
3 02/29/2020 07:19:02 49.88, -76.00 02/29/2020 07:19:47 50.32, -78.17 162.10 45
4 02/29/2020 08:57:55 49.89,-100.72 02/29/2020 09:01:15 50.43,-103.50 206.59 200
5 03/02/2020 18:17:12 49.96, -80.21 03/02/2020 18:10:04 49.69, -81.72 112.06 428
6 03/02/2020 19:56:05 49.95,-104.93 03/02/2020 19:51:32 49.58,-107.04 157.32 273




NCC Satellite Simultaneous Nadir Overpasses (SNOs) Prediction Service
